Regional Weather Roundup
Issued by NWS State College, PA

Home | Current Version | Previous Version | Graphics & Text | Print | Product List | Glossary On
Versions: 1 2 3 4 5 6 7 8 9 10 11 12 13 14 15 16 17 18 19 20 21 22 23 24 25 26 27 28 29 30 31 32 33 34 35 36 37 38 39 40 41 42 43 44 45 46 47 48 49 50
000
ASUS41 KCTP 030810
RWRCTP

REGIONAL WEATHER ROUNDUP
NATIONAL WEATHER SERVICE STATE COLLEGE PA
400 AM EDT FRI JUL 03 2015

Note: "fair" indicates few or no clouds below 12,000 feet with no
significant weather and/or obstructions to visibility.

* = STATION THAT DOES NOT REPORT PRECIPITATION /E.G. RAIN...SNOW...ETC/
    THUNDER OR FOG.

PAZ002>004-007>009-013>016-020>023-029>032-030900-
WESTERN PENNSYLVANIA

CITY           SKY/WX    TMP DP  RH WIND       PRES   REMARKS
ERIE           CLEAR     52  47  83 CALM      29.99S
MEADVILLE      CLEAR     50  46  86 CALM      30.00R
FRANKLIN*      CLEAR     50  46  87 N5        30.01S
NEW CASTLE     FAIR      52  52 100 CALM      29.99S
BEAVER COUNTY  NOT AVBL
BUTLER*        CLEAR     54  52  94 NE5       30.00R
PITTSBURGH INT PTCLDY    59  54  83 CALM      29.97R
PITTSBURGH     CLEAR     61  51  70 CALM      29.97R
INDIANA*       PTCLDY    55  55 100 CALM      30.01R
LATROBE        NOT AVBL
WASHINGTON CO* NOT AVBL
$$

PAZ004>006-010>012-017>019-024>028-033>037-041-042-045-046-049>053-030900-
CENTRAL PENNSYLVANIA

CITY           SKY/WX    TMP DP  RH WIND       PRES   REMARKS
BRADFORD       MOCLDY    47  45  93 CALM      30.01R
DUBOIS         CLOUDY    57  52  83 E6        29.99R
CLEARFIELD     CLEAR     56  53  90 N5        30.00R
JOHNSTOWN      CLEAR     57  54  89 NE3       29.98F
ALTOONA        FOG       58  57  97 CALM      29.98R VSB 1/4
STATE COLLEGE  PTCLDY    59  56  91 N5        29.98S
WILLIAMSPORT   PTCLDY    58  54  86 CALM      29.96S
SELINSGROVE    CLEAR     60  57  89 N3        29.96S
FT INDIANTOWN  CLEAR     62  57  83 NE1       29.94R
CAPITAL CITY   CLEAR     62  60  93 CALM      29.94R FOG
HARRISBURG     PTCLDY    63  61  93 NW5       29.93R
YORK           CLOUDY    57  56  96 CALM      29.94R FOG
$$

PAZ038>040-043-044-047-048-054-055-060>062-067>071-030900-
EASTERN PENNSYLVANIA

CITY           SKY/WX    TMP DP  RH WIND       PRES   REMARKS
SCRANTON       CLEAR     58  53  84 E3        29.97S
MOUNT POCONO   CLEAR     57  47  69 MISG      29.97S
ALLENTOWN      CLEAR     61  56  83 NW3       29.94R
QUAKERTOWN*    SUNNY     63  59  88 N3        29.94S
READING        CLEAR     62  60  93 NW5       29.92S
LANCASTER      CLEAR     61  60  97 CALM      29.93R FOG
COATESVILLE    SUNNY     64  64 100 N3        29.94R FOG
POTTSTOWN      CLEAR     60  60 100 CALM      29.94R FOG
BLUE BELL        N/A     63  63 100 CALM      29.91R
DOYLESTOWN     CLEAR     62  60  93 NE5       29.92R
WILLOW GROVE   NOT AVBL
NORTH PHILA    CLEAR     66  60  81 CALM      29.92S
PHILADELPHIA   PTCLDY    69  63  81 NW3       29.91S
$$



USA.gov is the U.S. government's official web portal to all federal, state and local government web resources and services.